Weather History for Crookston, MN

Change the Weather History Date:

Monday, January 6, 2014

  Actual Average Record
Temperature  
Mean Temperature -18 °F -  
Max Temperature -11 °F 13 °F 37 °F (2008)
Min Temperature -25 °F 0 °F -27 °F (2005)
Degree Days  
Heating Degree Days 83    
Moisture  
Dew Point -27 °F    
Average Humidity 69    
Maximum Humidity 77    
Minimum Humidity 63    
Precipitation  
Precipitation 0.00 in - - ()
Sea Level Pressure  
Sea Level Pressure 30.27 in    
Wind  
Wind Speed 13 mph (WNW)    
Max Wind Speed 18 mph    
Max Gust Speed -    
Visibility 9 miles    
Events      
Averages and records for this station are not official NWS values.
T = Trace of Precipitation, MM = Missing Value Source: NWS Daily Summary

Daily Weather History Graph

Daily Weather History Graph

Search for Another Location

Airport:

Trip Planner

Search our weather history database for the weather conditions in past years. The results will help you decide how hot, cold, wet, or windy it might be!

Date:

Astronomy

Jan. 06, 2014 Rise Set
Actual Time 8:14 AM CST 4:50 PM CST
Civil Twilight 7:39 AM CST 5:25 PM CST
Nautical Twilight 7:00 AM CST 6:04 PM CST
Astronomical Twilight 6:22 AM CST 6:42 PM CST
Moon 11:02 AM CST (1/6) 11:55 PM CST (1/6)
Length of Visible Light 9h 46m
Length of Day
8h 35m
Waxing Crescent, 35% of the Moon is Illuminated
Jan 6
Waxing Crescent
Jan 7
First Quarter
Jan 15
Full
Jan 23
Last Quarter
Jan 30
New

Hourly Weather History & Observations

Time (CST) Temp. Windchill Dew Point Humidity Pressure Visibility Wind Dir Wind Speed Gust Speed Precip Events Conditions
12:14 AM -23.8 °F -48.9 °F -31.0 °F 69% 30.38 in 10.0 mi NW 13.8 mph - N/A   Clear
12:35 AM -23.8 °F -49.8 °F -31.0 °F 69% 30.37 in 10.0 mi NW 15.0 mph - N/A   Clear
12:54 AM -23.8 °F -50.7 °F -31.0 °F 69% 30.37 in 10.0 mi NW 16.1 mph - N/A   Clear
1:14 AM -23.8 °F -49.8 °F -31.0 °F 69% 30.37 in 10.0 mi NW 15.0 mph - N/A   Clear
1:35 AM -23.8 °F -50.7 °F -31.0 °F 69% 30.37 in 10.0 mi NW 16.1 mph - N/A   Clear
1:54 AM -23.8 °F -50.7 °F -31.0 °F 69% 30.37 in 10.0 mi NW 16.1 mph - N/A   Clear
2:14 AM -23.8 °F -49.8 °F -31.0 °F 69% 30.36 in 10.0 mi NW 15.0 mph - N/A   Clear
2:35 AM -23.8 °F -49.8 °F -32.8 °F 63% 30.37 in 10.0 mi NW 15.0 mph - N/A   Clear
2:54 AM -23.8 °F -49.8 °F -31.0 °F 69% 30.37 in 10.0 mi NW 15.0 mph - N/A   Clear
3:14 AM -25.6 °F -49.2 °F -32.8 °F 69% 30.36 in 10.0 mi NW 11.5 mph - N/A   Clear
3:35 AM -23.8 °F -48.0 °F -32.8 °F 63% 30.36 in 10.0 mi NW 12.7 mph - N/A   Clear
3:54 AM -23.8 °F -48.9 °F -31.0 °F 69% 30.36 in 10.0 mi WNW 13.8 mph - N/A   Clear
4:14 AM -23.8 °F -48.0 °F -31.0 °F 69% 30.35 in 10.0 mi WNW 12.7 mph - N/A   Clear
4:35 AM -25.6 °F -52.1 °F -32.8 °F 69% 30.35 in 10.0 mi NW 15.0 mph - N/A   Clear
4:54 AM -25.6 °F -50.2 °F -32.8 °F 69% 30.35 in 10.0 mi NW 12.7 mph - N/A   Clear
5:14 AM -25.6 °F -50.2 °F -32.8 °F 69% 30.35 in 10.0 mi WNW 12.7 mph - N/A   Clear
5:34 AM -25.6 °F -51.2 °F -32.8 °F 69% 30.36 in 10.0 mi WNW 13.8 mph - N/A   Clear
5:54 AM -25.6 °F -53.0 °F -32.8 °F 69% 30.35 in 10.0 mi NW 16.1 mph - N/A   Clear
6:15 AM -25.6 °F -52.1 °F -32.8 °F 69% 30.35 in 10.0 mi WNW 15.0 mph - N/A   Clear
6:34 AM -25.6 °F -51.2 °F -32.8 °F 69% 30.34 in 10.0 mi WNW 13.8 mph - N/A   Scattered Clouds
6:54 AM -25.6 °F -51.2 °F -32.8 °F 69% 30.34 in 10.0 mi WNW 13.8 mph - N/A   Clear
7:15 AM -25.6 °F -48.0 °F -34.6 °F 63% 30.33 in 10.0 mi WNW 10.4 mph - N/A   Clear
7:34 AM -25.6 °F -51.2 °F -34.6 °F 63% 30.33 in 10.0 mi WNW 13.8 mph - N/A   Clear
7:54 AM -25.6 °F -50.2 °F -34.6 °F 63% 30.32 in 10.0 mi WNW 12.7 mph - N/A   Clear
8:15 AM -25.6 °F -48.0 °F -34.6 °F 63% 30.33 in 10.0 mi WNW 10.4 mph - N/A   Clear
8:34 AM -25.6 °F -48.0 °F -34.6 °F 63% 30.33 in 10.0 mi WNW 10.4 mph - N/A   Clear
8:54 AM -25.6 °F -49.2 °F -32.8 °F 69% 30.33 in 10.0 mi WNW 11.5 mph - N/A   Scattered Clouds
9:15 AM -25.6 °F -49.2 °F -32.8 °F 69% 30.33 in 10.0 mi WNW 11.5 mph - N/A   Scattered Clouds
9:34 AM -25.6 °F -49.2 °F -32.8 °F 69% 30.33 in 10.0 mi WNW 11.5 mph - N/A   Clear
9:54 AM -23.8 °F -48.9 °F -31.0 °F 69% 30.33 in 7.0 mi NW 13.8 mph - N/A   Scattered Clouds
10:15 AM -23.8 °F -49.8 °F -29.2 °F 76% 30.32 in 10.0 mi WNW 15.0 mph - N/A   Mostly Cloudy
10:34 AM -22.0 °F -49.1 °F -29.2 °F 69% 30.32 in 5.0 mi NW 17.3 mph - N/A   Haze
10:55 AM -22.0 °F -49.9 °F -29.2 °F 69% 30.31 in 5.0 mi NW 18.4 mph - N/A   Haze
11:14 AM -20.2 °F -46.8 °F -27.4 °F 69% 30.30 in 4.0 mi NW 17.3 mph - N/A   Haze
11:34 AM -20.2 °F -47.5 °F -27.4 °F 69% 30.29 in 4.0 mi NW 18.4 mph - N/A   Haze
11:55 AM -20.2 °F -46.8 °F -27.4 °F 69% 30.28 in 7.0 mi NW 17.3 mph - N/A   Clear
12:14 PM -20.2 °F -47.5 °F -27.4 °F 69% 30.27 in 10.0 mi NW 18.4 mph - N/A   Mostly Cloudy
12:34 PM -18.4 °F -43.7 °F -27.4 °F 63% 30.27 in 7.0 mi NW 16.1 mph - N/A   Scattered Clouds
12:55 PM -18.4 °F -43.7 °F -25.6 °F 70% 30.26 in 4.0 mi NW 16.1 mph - N/A   Haze
1:14 PM -18.4 °F -42.9 °F -25.6 °F 70% 30.26 in 7.0 mi NW 15.0 mph - N/A   Scattered Clouds
1:35 PM -18.4 °F -42.9 °F -25.6 °F 70% 30.25 in 10.0 mi WNW 15.0 mph - N/A   Clear
1:54 PM -18.4 °F -42.9 °F -25.6 °F 70% 30.25 in 10.0 mi NW 15.0 mph - N/A   Clear
2:14 PM -18.4 °F -42.1 °F -25.6 °F 70% 30.24 in 10.0 mi NW 13.8 mph - N/A   Scattered Clouds
2:35 PM -16.6 °F -38.9 °F -25.6 °F 64% 30.24 in 10.0 mi WNW 12.7 mph - N/A   Clear
2:54 PM -16.6 °F -38.9 °F -25.6 °F 64% 30.23 in 10.0 mi WNW 12.7 mph - N/A   Clear
3:14 PM -16.6 °F -36.8 °F -25.6 °F 64% 30.23 in 10.0 mi WNW 10.4 mph - N/A   Clear
3:35 PM -16.6 °F -34.4 °F -25.6 °F 64% 30.23 in 10.0 mi WNW 8.1 mph - N/A   Clear
3:54 PM -16.6 °F -35.7 °F -23.8 °F 70% 30.23 in 10.0 mi West 9.2 mph - N/A   Clear
4:14 PM -18.4 °F -36.6 °F -25.6 °F 70% 30.23 in 10.0 mi West 8.1 mph - N/A   Clear
4:35 PM -18.4 °F -35.1 °F -25.6 °F 70% 30.22 in 10.0 mi West 6.9 mph - N/A   Clear
4:54 PM -18.4 °F -33.4 °F -25.6 °F 70% 30.22 in 10.0 mi West 5.8 mph - N/A   Mostly Cloudy
5:15 PM -16.6 °F -32.9 °F -23.8 °F 70% 30.20 in 10.0 mi West 6.9 mph - N/A   Overcast
5:34 PM -16.6 °F -34.4 °F -23.8 °F 70% 30.20 in 10.0 mi West 8.1 mph - N/A   Overcast
5:54 PM -14.8 °F -32.2 °F -22.0 °F 70% 30.19 in 10.0 mi West 8.1 mph - N/A   Overcast
6:00 PM -14.8 °F -32.2 °F -22.0 °F 70% 30.19 in 10.0 mi West 8.1 mph - N/A   Overcast
6:34 PM -14.8 °F -32.2 °F -20.2 °F 77% 30.19 in 10.0 mi West 8.1 mph - N/A   Overcast
6:55 PM -13.0 °F -30.0 °F -20.2 °F 70% 30.19 in 10.0 mi West 8.1 mph - N/A   Overcast
7:14 PM -13.0 °F -28.6 °F -20.2 °F 70% 30.18 in 10.0 mi West 6.9 mph - N/A   Overcast
7:35 PM -13.0 °F -31.3 °F -20.2 °F 70% 30.18 in 10.0 mi West 9.2 mph - N/A   Overcast
7:54 PM -13.0 °F -30.0 °F -20.2 °F 70% 30.17 in 10.0 mi West 8.1 mph - N/A   Overcast
8:14 PM -13.0 °F -30.0 °F -20.2 °F 70% 30.17 in 10.0 mi West 8.1 mph - N/A   Overcast
8:35 PM -14.8 °F -30.8 °F -20.2 °F 77% 30.16 in 10.0 mi West 6.9 mph - N/A   Overcast
8:54 PM -13.0 °F -28.6 °F -20.2 °F 70% 30.15 in 10.0 mi WSW 6.9 mph - N/A   Overcast
9:14 PM -14.8 °F -29.1 °F -20.2 °F 77% 30.14 in 10.0 mi WSW 5.8 mph - N/A   Overcast
9:34 PM -14.8 °F -32.2 °F -20.2 °F 77% 30.14 in 10.0 mi WSW 8.1 mph - N/A   Overcast
9:54 PM -14.8 °F -32.2 °F -20.2 °F 77% 30.13 in 10.0 mi WSW 8.1 mph - N/A   Scattered Clouds
10:15 PM -14.8 °F -27.2 °F -20.2 °F 77% 30.12 in 10.0 mi WSW 4.6 mph - N/A   Mostly Cloudy
10:34 PM -13.0 °F -27.0 °F -18.4 °F 77% 30.11 in 10.0 mi WSW 5.8 mph - N/A   Overcast
10:54 PM -13.0 °F -27.0 °F -18.4 °F 77% 30.10 in 10.0 mi WSW 5.8 mph - N/A   Overcast
11:15 PM -13.0 °F -27.0 °F -18.4 °F 77% 30.10 in 10.0 mi SW 5.8 mph - N/A   Overcast
11:34 PM -11.2 °F -26.4 °F -18.4 °F 70% 30.08 in 10.0 mi SW 6.9 mph - N/A   Overcast
11:55 PM -11.2 °F -24.8 °F -18.4 °F 70% 30.08 in 10.0 mi WSW 5.8 mph - N/A   Overcast